Location: Hastringsfeld
(50.9620°N, 10.4787°E)
Time: 00:43:45
(UTC+00:00)

ADEOS II - Visible Passes

Search period start: 19 April 2024 00:00
Search period end: 29 April 2024 00:00
Orbit: 797 x 798 km, 98.7° (Epoch: 18 April)

Date Brightness Start Highest point End Pass type
(mag) Time Alt. Az. Time Alt. Az. Time Alt. Az.
19 Apr 4.4 00:11:07 10° NE 00:13:51 14° E 00:16:06 11° ESE visible
19 Apr 2.1 01:49:01 10° NNE 01:54:18 84° ESE 01:56:59 30° SSW visible
19 Apr 3.7 03:29:39 10° N 03:33:19 20° NW 03:36:58 10° W visible
20 Apr 2.7 01:21:43 10° NNE 01:26:51 51° E 01:29:22 28° SSE visible
20 Apr 3.2 03:01:46 10° N 03:06:15 29° WNW 03:10:16 12° WSW visible
21 Apr 3.4 00:54:37 10° NNE 00:59:18 32° E 01:01:45 22° SE visible
21 Apr 2.6 02:34:05 10° N 02:39:05 45° WNW 02:42:39 18° SW visible
22 Apr 4.1 00:27:52 10° NE 00:31:38 20° E 00:34:09 14° ESE visible
22 Apr 2.1 02:06:33 10° NNE 02:11:48 73° WNW 02:15:02 24° SSW visible
23 Apr 4.5 00:02:05 10° ENE 00:03:50 12° E 00:05:34 10° ESE visible
23 Apr 2.2 01:39:10 10° NNE 01:44:25 71° ESE 01:47:24 26° S visible
23 Apr 3.5 03:19:34 10° N 03:23:34 23° WNW 03:27:34 10° WSW visible
24 Apr 3.0 01:11:55 10° NNE 01:16:56 43° E 01:19:47 23° SSE visible
24 Apr 3.0 02:51:46 10° N 02:56:28 34° WNW 03:00:40 12° WSW visible
25 Apr 3.7 00:44:56 10° NE 00:49:20 26° E 00:52:10 17° SE visible
25 Apr 2.4 02:24:08 10° N 02:29:16 54° WNW 02:33:03 18° SW visible
26 Apr 4.3 00:18:22 10° NE 00:21:36 16° E 00:24:32 11° ESE visible
26 Apr 2.0 01:56:39 10° NNE 02:01:56 86° WNW 02:05:25 22° SSW visible
27 Apr 2.5 01:29:18 10° NNE 01:34:30 59° ESE 01:37:47 22° S visible
27 Apr 3.3 03:09:29 10° N 03:13:48 26° WNW 03:18:05 10° WSW visible
28 Apr 3.2 01:02:08 10° NNE 01:06:58 36° E 01:10:09 19° SSE visible
28 Apr 2.8 02:41:45 10° N 02:46:38 40° WNW 02:51:02 12° SW visible
